Time,TemperatureF,DewpointF,PressureIn,WindDirection,WindDirectionDegrees,WindSpeedMPH,WindSpeedGustMPH,Humidity,HourlyPrecipIn,Conditions,Clouds,dailyrainin,SoftwareType,DateUTC
2013-05-09 00:00:00,56.6,56.3,29.84,SE,135,0.0,8.0,99,0.00,,,0.48,Wunderground v.1.15,2013-05-09 05:00:00,
2013-05-09 00:02:00,56.6,56.3,29.84,SE,135,0.0,8.0,99,0.00,,,0.48,Wunderground v.1.15,2013-05-09 05:02:00,
2013-05-09 00:07:00,56.6,56.6,29.84,SE,134,0.0,8.0,100,0.00,,,0.00,Wunderground v.1.15,2013-05-09 05:07:00,
2013-05-09 00:12:00,56.7,56.7,29.85,SE,136,1.0,2.0,100,0.00,,,0.00,Wunderground v.1.15,2013-05-09 05:12:00,
2013-05-09 00:14:00,56.7,56.7,29.85,SE,134,1.0,2.0,100,0.00,,,0.00,Wunderground v.1.15,2013-05-09 05:14:00,
2013-05-09 00:16:00,56.7,56.7,29.85,SE,138,2.0,2.0,100,0.00,,,0.00,Wunderground v.1.15,2013-05-09 05:16:00,
2013-05-09 00:18:00,56.6,56.6,29.85,SE,135,1.0,2.0,100,0.00,,,0.00,Wunderground v.1.15,2013-05-09 05:18:00,
2013-05-09 00:20:00,56.6,56.6,29.85,SE,135,1.0,1.0,100,0.00,,,0.00,Wunderground v.1.15,2013-05-09 05:20:00,
2013-05-09 00:22:00,56.6,56.6,29.85,SE,136,1.0,1.0,100,0.00,,,0.00,Wunderground v.1.15,2013-05-09 05:22:00,
2013-05-09 00:24:00,56.6,56.6,29.85,SE,135,1.0,1.0,100,0.00,,,0.00,Wunderground v.1.15,2013-05-09 05:24:00,
2013-05-09 00:27:00,56.7,56.7,29.85,SE,135,0.0,1.0,100,0.00,,,0.00,Wunderground v.1.15,2013-05-09 05:27:00,
2013-05-09 00:30:00,56.7,56.7,29.85,SE,135,0.0,0.0,100,0.00,,,0.00,Wunderground v.1.15,2013-05-09 05:30:00,
2013-05-09 00:34:00,56.6,56.6,29.85,SE,135,0.0,0.0,100,0.00,,,0.00,Wunderground v.1.15,2013-05-09 05:34:00,
2013-05-09 00:36:00,56.6,56.6,29.85,SE,135,0.0,0.0,100,0.00,,,0.00,Wunderground v.1.15,2013-05-09 05:36:00,
2013-05-09 00:38:00,56.6,56.6,29.85,SE,135,0.0,0.0,100,0.00,,,0.00,Wunderground v.1.15,2013-05-09 05:38:00,
2013-05-09 00:40:00,56.6,56.6,29.85,SE,135,0.0,0.0,100,0.00,,,0.00,Wunderground v.1.15,2013-05-09 05:40:00,
2013-05-09 00:44:00,56.4,56.4,29.85,SE,135,0.0,1.0,100,0.00,,,0.00,Wunderground v.1.15,2013-05-09 05:44:00,
2013-05-09 00:47:00,56.4,56.4,29.85,SE,135,0.0,1.0,100,0.00,,,0.00,Wunderground v.1.15,2013-05-09 05:47:00,
2013-05-09 00:49:00,56.3,56.3,29.85,SE,135,0.0,0.0,100,0.00,,,0.00,Wunderground v.1.15,2013-05-09 05:49:00,
2013-05-09 00:54:00,56.3,56.3,29.84,SE,135,0.0,0.0,100,0.00,,,0.00,Wunderground v.1.15,2013-05-09 05:54:00,
2013-05-09 00:56:00,56.3,56.3,29.85,SE,135,0.0,0.0,100,0.00,,,0.00,Wunderground v.1.15,2013-05-09 05:56:00,
2013-05-09 01:00:00,56.2,56.2,29.85,SE,136,0.0,0.0,100,0.00,,,0.00,Wunderground v.1.15,2013-05-09 06:00:00,
2013-05-09 01:04:00,56.2,56.2,29.85,SE,135,0.0,1.0,100,0.00,,,0.00,Wunderground v.1.15,2013-05-09 06:04:00,
2013-05-09 01:06:00,56.1,56.1,29.84,SE,135,0.0,1.0,100,0.00,,,0.00,Wunderground v.1.15,2013-05-09 06:06:00,
2013-05-09 01:09:00,56.1,56.1,29.84,SE,136,0.0,1.0,100,0.00,,,0.00,Wunderground v.1.15,2013-05-09 06:09:00,
2013-05-09 01:11:00,56.1,56.1,29.84,SE,136,0.0,1.0,100,0.00,,,0.00,Wunderground v.1.15,2013-05-09 06:11:00,
2013-05-09 01:14:00,56.1,56.1,29.84,SE,135,0.0,1.0,100,0.00,,,0.00,Wunderground v.1.15,2013-05-09 06:14:00,
2013-05-09 01:18:00,56.1,56.1,29.84,SE,135,0.0,1.0,100,0.00,,,0.00,Wunderground v.1.15,2013-05-09 06:18:00,
2013-05-09 01:20:00,56.1,56.1,29.84,SE,135,0.0,1.0,100,0.00,,,0.00,Wunderground v.1.15,2013-05-09 06:20:00,
2013-05-09 01:22:00,56.1,56.1,29.84,SE,135,0.0,1.0,100,0.00,,,0.00,Wunderground v.1.15,2013-05-09 06:22:00,
2013-05-09 01:26:00,56.1,56.1,29.84,SE,135,0.0,1.0,100,0.00,,,0.00,Wunderground v.1.15,2013-05-09 06:26:00,
2013-05-09 01:29:00,56.1,56.1,29.84,SE,135,0.0,1.0,100,0.00,,,0.00,Wunderground v.1.15,2013-05-09 06:29:00,
2013-05-09 01:31:00,56.1,56.1,29.84,SE,135,0.0,1.0,100,0.00,,,0.00,Wunderground v.1.15,2013-05-09 06:31:00,
2013-05-09 01:36:00,56.0,56.0,29.84,SE,135,0.0,1.0,100,0.00,,,0.00,Wunderground v.1.15,2013-05-09 06:36:00,
2013-05-09 01:38:00,56.0,56.0,29.83,SE,134,0.0,1.0,100,0.00,,,0.00,Wunderground v.1.15,2013-05-09 06:38:00,
2013-05-09 01:44:00,56.0,56.0,29.83,SE,145,0.0,1.0,100,0.00,,,0.00,Wunderground v.1.15,2013-05-09 06:44:00,
2013-05-09 01:46:00,55.9,55.9,29.83,SSE,148,0.0,1.0,100,0.00,,,0.00,Wunderground v.1.15,2013-05-09 06:46:00,
2013-05-09 01:48:00,55.9,55.9,29.83,SSE,154,0.0,2.0,100,0.00,,,0.00,Wunderground v.1.15,2013-05-09 06:48:00,
2013-05-09 01:50:00,55.8,55.8,29.83,SSE,158,1.0,1.0,100,0.00,,,0.00,Wunderground v.1.15,2013-05-09 06:50:00,
2013-05-09 01:53:00,55.9,55.9,29.83,SE,131,1.0,3.0,100,0.00,,,0.00,Wunderground v.1.15,2013-05-09 06:53:00,
2013-05-09 01:56:00,55.9,55.9,29.83,SE,136,2.0,3.0,100,0.00,,,0.00,Wunderground v.1.15,2013-05-09 06:56:00,
2013-05-09 02:02:00,55.8,55.8,29.83,SE,131,3.0,3.0,100,0.00,,,0.00,Wunderground v.1.15,2013-05-09 07:02:00,
2013-05-09 02:04:00,55.8,55.8,29.83,SE,134,3.0,3.0,100,0.00,,,0.00,Wunderground v.1.15,2013-05-09 07:04:00,
2013-05-09 02:08:00,55.8,55.8,29.83,SE,131,3.0,3.0,100,0.00,,,0.00,Wunderground v.1.15,2013-05-09 07:08:00,
2013-05-09 02:10:00,55.8,55.8,29.83,SE,133,3.0,3.0,100,0.00,,,0.00,Wunderground v.1.15,2013-05-09 07:10:00,
2013-05-09 02:12:00,55.8,55.8,29.83,SE,128,3.0,4.0,100,0.00,,,0.00,Wunderground v.1.15,2013-05-09 07:12:00,
2013-05-09 02:16:00,55.9,55.9,29.83,SE,131,3.0,4.0,100,0.00,,,0.00,Wunderground v.1.15,2013-05-09 07:16:00,
2013-05-09 02:17:00,55.9,55.9,29.83,SE,134,3.0,4.0,100,0.00,,,0.00,Wunderground v.1.15,2013-05-09 07:17:00,
2013-05-09 02:22:00,55.8,55.8,29.83,SE,134,3.0,3.0,100,0.00,,,0.00,Wunderground v.1.15,2013-05-09 07:22:00,
2013-05-09 02:24:00,55.8,55.8,29.83,SE,133,2.0,3.0,100,0.00,,,0.00,Wunderground v.1.15,2013-05-09 07:24:00,
2013-05-09 02:30:00,55.7,55.7,29.83,SE,132,1.0,1.0,100,0.00,,,0.00,Wunderground v.1.15,2013-05-09 07:30:00,
2013-05-09 02:32:00,55.7,55.7,29.83,SE,125,1.0,2.0,100,0.00,,,0.00,Wunderground v.1.15,2013-05-09 07:32:00,
2013-05-09 02:36:00,55.8,55.8,29.83,SE,127,1.0,2.0,100,0.00,,,0.00,Wunderground v.1.15,2013-05-09 07:36:00,
2013-05-09 02:37:00,55.8,55.8,29.83,SE,125,1.0,2.0,100,0.00,,,0.00,Wunderground v.1.15,2013-05-09 07:37:00,
2013-05-09 02:41:00,55.9,55.9,29.83,SE,133,2.0,2.0,100,0.00,,,0.00,Wunderground v.1.15,2013-05-09 07:41:00,
2013-05-09 02:46:00,55.9,55.9,29.83,SE,133,1.0,2.0,100,0.00,,,0.00,Wunderground v.1.15,2013-05-09 07:46:00,
2013-05-09 02:50:00,55.8,55.8,29.83,SE,133,1.0,1.0,100,0.00,,,0.00,Wunderground v.1.15,2013-05-09 07:50:00,
2013-05-09 02:52:00,55.8,55.8,29.83,SE,133,0.0,1.0,100,0.00,,,0.00,Wunderground v.1.15,2013-05-09 07:52:00,
2013-05-09 02:54:00,55.7,55.7,29.83,SE,133,0.0,1.0,100,0.00,,,0.00,Wunderground v.1.15,2013-05-09 07:54:00,
2013-05-09 02:56:00,55.7,55.7,29.83,SE,132,0.0,1.0,100,0.00,,,0.00,Wunderground v.1.15,2013-05-09 07:56:00,
2013-05-09 02:59:00,55.6,55.6,29.83,SE,133,0.0,1.0,100,0.00,,,0.00,Wunderground v.1.15,2013-05-09 07:59:00,
2013-05-09 03:01:00,55.6,55.6,29.83,SE,133,0.0,1.0,100,0.00,,,0.00,Wunderground v.1.15,2013-05-09 08:01:00,
2013-05-09 03:06:00,55.5,55.5,29.83,SE,132,0.0,1.0,100,0.00,,,0.00,Wunderground v.1.15,2013-05-09 08:06:00,
2013-05-09 03:08:00,55.5,55.5,29.83,SE,132,0.0,1.0,100,0.00,,,0.00,Wunderground v.1.15,2013-05-09 08:08:00,
2013-05-09 03:12:00,55.5,55.5,29.83,SE,133,0.0,1.0,100,0.00,,,0.00,Wunderground v.1.15,2013-05-09 08:12:00,
2013-05-09 03:16:00,55.6,55.6,29.83,SE,132,0.0,1.0,100,0.00,,,0.00,Wunderground v.1.15,2013-05-09 08:16:00,
2013-05-09 03:18:00,55.6,55.6,29.83,SE,132,0.0,1.0,100,0.00,,,0.00,Wunderground v.1.15,2013-05-09 08:18:00,
2013-05-09 03:23:00,55.7,55.7,29.83,SE,134,0.0,1.0,100,0.00,,,0.00,Wunderground v.1.15,2013-05-09 08:23:00,
2013-05-09 03:26:00,55.5,55.5,29.83,SE,134,0.0,1.0,100,0.00,,,0.00,Wunderground v.1.15,2013-05-09 08:26:00,
2013-05-09 03:32:00,55.4,55.4,29.82,SE,134,0.0,1.0,100,0.00,,,0.00,Wunderground v.1.15,2013-05-09 08:32:00,
2013-05-09 03:36:00,55.4,55.4,29.82,SE,134,0.0,1.0,100,0.00,,,0.00,Wunderground v.1.15,2013-05-09 08:36:00,
2013-05-09 03:38:00,55.4,55.4,29.82,SE,134,0.0,1.0,100,0.00,,,0.00,Wunderground v.1.15,2013-05-09 08:38:00,
2013-05-09 03:40:00,55.4,55.4,29.82,SE,134,0.0,1.0,100,0.00,,,0.00,Wunderground v.1.15,2013-05-09 08:40:00,
2013-05-09 03:43:00,55.5,55.5,29.82,North,356,0.0,1.0,100,0.00,,,0.00,Wunderground v.1.15,2013-05-09 08:43:00,
2013-05-09 03:50:00,55.6,55.6,29.81,North,357,1.0,1.0,100,0.00,,,0.00,Wunderground v.1.15,2013-05-09 08:50:00,
2013-05-09 03:52:00,55.7,55.7,29.81,North,356,1.0,1.0,100,0.00,,,0.00,Wunderground v.1.15,2013-05-09 08:52:00,
2013-05-09 03:54:00,55.7,55.7,29.81,North,357,0.0,1.0,100,0.00,,,0.00,Wunderground v.1.15,2013-05-09 08:54:00,
2013-05-09 03:56:00,55.6,55.6,29.81,North,357,0.0,1.0,100,0.00,,,0.00,Wunderground v.1.15,2013-05-09 08:56:00,
2013-05-09 03:58:00,55.6,55.6,29.81,North,356,0.0,1.0,100,0.00,,,0.00,Wunderground v.1.15,2013-05-09 08:58:00,
2013-05-09 04:02:00,55.7,55.7,29.81,North,357,0.0,1.0,100,0.00,,,0.00,Wunderground v.1.15,2013-05-09 09:02:00,
2013-05-09 04:03:00,55.7,55.7,29.81,North,356,0.0,1.0,100,0.00,,,0.00,Wunderground v.1.15,2013-05-09 09:03:00,
2013-05-09 04:05:00,55.7,55.7,29.81,North,3,0.0,1.0,100,0.00,,,0.00,Wunderground v.1.15,2013-05-09 09:05:00,
2013-05-09 04:08:00,55.7,55.7,29.81,North,3,0.0,1.0,100,0.00,,,0.00,Wunderground v.1.15,2013-05-09 09:08:00,
2013-05-09 04:10:00,55.7,55.7,29.81,North,4,0.0,1.0,100,0.00,,,0.00,Wunderground v.1.15,2013-05-09 09:10:00,
2013-05-09 04:12:00,55.7,55.7,29.81,North,4,0.0,1.0,100,0.00,,,0.00,Wunderground v.1.15,2013-05-09 09:12:00,
2013-05-09 04:14:00,55.7,55.7,29.81,North,3,0.0,1.0,100,0.00,,,0.00,Wunderground v.1.15,2013-05-09 09:14:00,
2013-05-09 04:16:00,55.6,55.6,29.81,North,3,0.0,1.0,100,0.00,,,0.00,Wunderground v.1.15,2013-05-09 09:16:00,
2013-05-09 04:20:00,55.5,55.5,29.81,North,3,0.0,1.0,100,0.00,,,0.00,Wunderground v.1.15,2013-05-09 09:20:00,
2013-05-09 04:22:00,55.5,55.5,29.81,North,4,0.0,1.0,100,0.00,,,0.00,Wunderground v.1.15,2013-05-09 09:22:00,
2013-05-09 04:24:00,55.5,55.5,29.81,North,3,0.0,1.0,100,0.00,,,0.00,Wunderground v.1.15,2013-05-09 09:24:00,
2013-05-09 04:27:00,55.6,55.6,29.81,North,3,0.0,1.0,100,0.00,,,0.00,Wunderground v.1.15,2013-05-09 09:27:00,
2013-05-09 04:30:00,55.6,55.6,29.80,North,4,0.0,1.0,100,0.00,,,0.00,Wunderground v.1.15,2013-05-09 09:30:00,
2013-05-09 04:32:00,55.7,55.7,29.80,North,3,0.0,1.0,100,0.00,,,0.00,Wunderground v.1.15,2013-05-09 09:32:00,
2013-05-09 04:34:00,55.6,55.6,29.80,North,3,0.0,1.0,100,0.00,,,0.00,Wunderground v.1.15,2013-05-09 09:34:00,
2013-05-09 04:38:00,55.7,55.7,29.80,North,4,0.0,1.0,100,0.00,,,0.00,Wunderground v.1.15,2013-05-09 09:38:00,
2013-05-09 04:40:00,55.7,55.7,29.80,North,4,0.0,1.0,100,0.00,,,0.00,Wunderground v.1.15,2013-05-09 09:40:00,
2013-05-09 04:44:00,55.6,55.6,29.80,North,3,0.0,1.0,100,0.00,,,0.00,Wunderground v.1.15,2013-05-09 09:44:00,
2013-05-09 04:49:00,55.7,55.7,29.80,North,3,0.0,1.0,100,0.00,,,0.00,Wunderground v.1.15,2013-05-09 09:49:00,
2013-05-09 04:52:00,55.7,55.7,29.80,North,3,0.0,1.0,100,0.00,,,0.00,Wunderground v.1.15,2013-05-09 09:52:00,
2013-05-09 04:54:00,55.7,55.7,29.80,North,3,0.0,1.0,100,0.00,,,0.00,Wunderground v.1.15,2013-05-09 09:54:00,
2013-05-09 04:58:00,55.7,55.7,29.80,NNE,29,0.0,1.0,100,0.00,,,0.00,Wunderground v.1.15,2013-05-09 09:58:00,
2013-05-09 05:04:00,55.8,55.8,29.80,NE,56,0.0,1.0,100,0.00,,,0.00,Wunderground v.1.15,2013-05-09 10:04:00,
2013-05-09 05:06:00,55.9,55.9,29.81,ENE,67,1.0,2.0,100,0.00,,,0.00,Wunderground v.1.15,2013-05-09 10:06:00,
2013-05-09 05:07:00,55.9,55.9,29.80,NNE,29,1.0,3.0,100,0.00,,,0.00,Wunderground v.1.15,2013-05-09 10:07:00,
2013-05-09 05:09:00,55.9,55.9,29.80,NNE,30,1.0,3.0,100,0.00,,,0.00,Wunderground v.1.15,2013-05-09 10:09:00,
2013-05-09 05:14:00,55.9,55.9,29.80,NE,43,3.0,3.0,100,0.00,,,0.00,Wunderground v.1.15,2013-05-09 10:14:00,
2013-05-09 05:16:00,55.8,55.8,29.81,NE,37,3.0,3.0,100,0.00,,,0.00,Wunderground v.1.15,2013-05-09 10:16:00,
2013-05-09 05:18:00,55.8,55.8,29.80,NNE,32,3.0,3.0,100,0.00,,,0.00,Wunderground v.1.15,2013-05-09 10:18:00,
2013-05-09 05:22:00,55.8,55.8,29.80,NNE,32,3.0,3.0,100,0.00,,,0.00,Wunderground v.1.15,2013-05-09 10:22:00,
2013-05-09 05:24:00,55.8,55.8,29.80,NE,34,3.0,3.0,100,0.00,,,0.00,Wunderground v.1.15,2013-05-09 10:24:00,
2013-05-09 05:28:00,55.7,55.7,29.80,NE,39,3.0,3.0,100,0.00,,,0.00,Wunderground v.1.15,2013-05-09 10:28:00,
2013-05-09 05:29:00,55.8,55.8,29.80,NE,37,3.0,3.0,100,0.00,,,0.00,Wunderground v.1.15,2013-05-09 10:29:00,
2013-05-09 05:31:00,55.8,55.8,29.80,NNE,28,2.0,3.0,100,0.00,,,0.00,Wunderground v.1.15,2013-05-09 10:31:00,
2013-05-09 05:34:00,55.8,55.8,29.81,NE,43,2.0,3.0,100,0.00,,,0.00,Wunderground v.1.15,2013-05-09 10:34:00,
2013-05-09 05:36:00,55.8,55.8,29.81,NE,37,2.0,3.0,100,0.00,,,0.00,Wunderground v.1.15,2013-05-09 10:36:00,
2013-05-09 05:42:00,55.8,55.8,29.81,NNE,27,3.0,3.0,100,0.00,,,0.00,Wunderground v.1.15,2013-05-09 10:42:00,
2013-05-09 05:46:00,55.9,55.9,29.81,NNE,27,2.0,3.0,100,0.00,,,0.00,Wunderground v.1.15,2013-05-09 10:46:00,
2013-05-09 05:48:00,55.9,55.9,29.81,NNE,28,2.0,3.0,100,0.00,,,0.00,Wunderground v.1.15,2013-05-09 10:48:00,
2013-05-09 05:54:00,55.9,55.9,29.81,NE,51,2.0,2.0,100,0.00,,,0.00,Wunderground v.1.15,2013-05-09 10:54:00,
2013-05-09 05:56:00,55.9,55.9,29.81,NNE,28,2.0,3.0,100,0.00,,,0.00,Wunderground v.1.15,2013-05-09 10:56:00,
2013-05-09 05:58:00,55.9,55.9,29.81,NNE,33,2.0,3.0,100,0.00,,,0.00,Wunderground v.1.15,2013-05-09 10:58:00,
2013-05-09 06:01:00,55.8,55.8,29.81,NNE,25,2.0,2.0,100,0.00,,,0.00,Wunderground v.1.15,2013-05-09 11:01:00,
2013-05-09 06:08:00,55.8,55.8,29.81,NE,34,2.0,3.0,100,0.00,,,0.00,Wunderground v.1.15,2013-05-09 11:08:00,
2013-05-09 06:10:00,55.8,55.8,29.81,NE,37,2.0,4.0,100,0.00,,,0.00,Wunderground v.1.15,2013-05-09 11:10:00,
2013-05-09 06:12:00,55.8,55.8,29.81,NE,43,2.0,4.0,100,0.00,,,0.00,Wunderground v.1.15,2013-05-09 11:12:00,
2013-05-09 06:14:00,55.8,55.8,29.81,NE,44,3.0,4.0,100,0.00,,,0.00,Wunderground v.1.15,2013-05-09 11:14:00,
2013-05-09 06:19:00,55.8,55.8,29.81,ENE,58,3.0,3.0,100,0.00,,,0.00,Wunderground v.1.15,2013-05-09 11:19:00,
2013-05-09 06:23:00,55.8,55.8,29.81,ENE,67,3.0,3.0,100,0.00,,,0.00,Wunderground v.1.15,2013-05-09 11:23:00,
2013-05-09 06:26:00,55.7,55.7,29.82,NE,47,3.0,3.0,100,0.00,,,0.00,Wunderground v.1.15,2013-05-09 11:26:00,
2013-05-09 06:28:00,55.7,55.7,29.82,NE,43,2.0,3.0,100,0.00,,,0.00,Wunderground v.1.15,2013-05-09 11:28:00,
2013-05-09 06:30:00,55.8,55.8,29.82,ENE,76,2.0,2.0,100,0.00,,,0.00,Wunderground v.1.15,2013-05-09 11:30:00,
2013-05-09 06:34:00,55.7,55.7,29.82,ENE,63,2.0,2.0,100,0.00,,,0.00,Wunderground v.1.15,2013-05-09 11:34:00,
2013-05-09 06:36:00,55.7,55.7,29.82,ENE,63,1.0,2.0,100,0.00,,,0.00,Wunderground v.1.15,2013-05-09 11:36:00,
2013-05-09 06:38:00,55.7,55.7,29.82,ENE,63,1.0,2.0,100,0.00,,,0.00,Wunderground v.1.15,2013-05-09 11:38:00,
2013-05-09 06:40:00,55.7,55.7,29.82,ENE,63,1.0,1.0,100,0.00,,,0.00,Wunderground v.1.15,2013-05-09 11:40:00,
2013-05-09 06:41:00,55.7,55.7,29.82,NE,49,1.0,2.0,100,0.00,,,0.00,Wunderground v.1.15,2013-05-09 11:41:00,
2013-05-09 06:48:00,55.7,55.7,29.82,NE,41,2.0,2.0,100,0.00,,,0.00,Wunderground v.1.15,2013-05-09 11:48:00,
2013-05-09 06:52:00,55.7,55.7,29.82,NE,34,2.0,2.0,100,0.00,,,0.00,Wunderground v.1.15,2013-05-09 11:52:00,
2013-05-09 06:54:00,55.7,55.7,29.82,NE,43,2.0,2.0,100,0.00,,,0.00,Wunderground v.1.15,2013-05-09 11:54:00,
2013-05-09 06:58:00,55.7,55.7,29.82,NNE,33,2.0,2.0,100,0.00,,,0.00,Wunderground v.1.15,2013-05-09 11:58:00,
2013-05-09 07:00:00,55.8,55.8,29.82,NE,37,2.0,3.0,100,0.00,,,0.00,Wunderground v.1.15,2013-05-09 12:00:00,
2013-05-09 07:02:00,55.8,55.8,29.82,NE,39,2.0,3.0,100,0.00,,,0.00,Wunderground v.1.15,2013-05-09 12:02:00,
2013-05-09 07:03:00,55.8,55.8,29.82,NE,43,2.0,3.0,100,0.00,,,0.00,Wunderground v.1.15,2013-05-09 12:03:00,
2013-05-09 07:05:00,55.8,55.8,29.82,NE,34,2.0,3.0,100,0.00,,,0.00,Wunderground v.1.15,2013-05-09 12:05:00,
2013-05-09 07:10:00,55.8,55.8,29.82,NE,36,3.0,4.0,100,0.00,,,0.00,Wunderground v.1.15,2013-05-09 12:10:00,
2013-05-09 07:12:00,55.7,55.7,29.82,NE,46,4.0,4.0,100,0.00,,,0.00,Wunderground v.1.15,2013-05-09 12:12:00,
2013-05-09 07:14:00,55.8,55.8,29.82,NE,34,4.0,4.0,100,0.00,,,0.00,Wunderground v.1.15,2013-05-09 12:14:00,
2013-05-09 07:16:00,55.8,55.8,29.82,NNE,27,4.0,4.0,100,0.00,,,0.00,Wunderground v.1.15,2013-05-09 12:16:00,
2013-05-09 07:18:00,55.8,55.8,29.83,NNE,28,5.0,5.0,100,0.00,,,0.00,Wunderground v.1.15,2013-05-09 12:18:00,
2013-05-09 07:20:00,55.8,55.8,29.82,NNE,28,5.0,5.0,100,0.00,,,0.00,Wunderground v.1.15,2013-05-09 12:20:00,
2013-05-09 07:22:00,55.8,55.8,29.82,NE,45,5.0,5.0,100,0.00,,,0.00,Wunderground v.1.15,2013-05-09 12:22:00,
2013-05-09 07:23:00,55.8,55.8,29.82,NNE,23,5.0,5.0,100,0.00,,,0.00,Wunderground v.1.15,2013-05-09 12:23:00,
2013-05-09 07:27:00,55.8,55.8,29.83,NE,41,5.0,6.0,100,0.00,,,0.00,Wunderground v.1.15,2013-05-09 12:27:00,
2013-05-09 07:30:00,55.8,55.8,29.83,NE,46,5.0,5.0,100,0.00,,,0.00,Wunderground v.1.15,2013-05-09 12:30:00,
2013-05-09 07:32:00,55.8,55.8,29.83,NE,39,5.0,5.0,100,0.00,,,0.00,Wunderground v.1.15,2013-05-09 12:32:00,
2013-05-09 07:36:00,55.9,55.9,29.83,NE,43,4.0,5.0,100,0.00,,,0.00,Wunderground v.1.15,2013-05-09 12:36:00,
2013-05-09 07:38:00,55.9,55.9,29.83,NE,43,4.0,5.0,100,0.00,,,0.00,Wunderground v.1.15,2013-05-09 12:38:00,
2013-05-09 07:44:00,55.9,55.9,29.83,NE,38,4.0,6.0,100,0.00,,,0.00,Wunderground v.1.15,2013-05-09 12:44:00,
2013-05-09 07:45:00,55.9,55.9,29.83,NNE,26,4.0,6.0,100,0.00,,,0.00,Wunderground v.1.15,2013-05-09 12:45:00,
2013-05-09 07:47:00,55.9,55.9,29.83,NE,38,4.0,6.0,100,0.00,,,0.00,Wunderground v.1.15,2013-05-09 12:47:00,
2013-05-09 07:52:00,55.9,55.9,29.83,NE,39,4.0,4.0,100,0.00,,,0.00,Wunderground v.1.15,2013-05-09 12:52:00,
2013-05-09 07:54:00,55.9,55.9,29.83,NE,48,4.0,4.0,100,0.00,,,0.00,Wunderground v.1.15,2013-05-09 12:54:00,
2013-05-09 07:58:00,55.8,55.8,29.83,NE,46,5.0,7.0,100,0.00,,,0.00,Wunderground v.1.15,2013-05-09 12:58:00,
2013-05-09 08:02:00,55.8,55.8,29.83,NNE,30,5.0,5.0,100,0.00,,,0.00,Wunderground v.1.15,2013-05-09 13:02:00,
2013-05-09 08:04:00,55.8,55.8,29.83,NE,44,5.0,6.0,100,0.00,,,0.00,Wunderground v.1.15,2013-05-09 13:04:00,
2013-05-09 08:06:00,55.8,55.8,29.83,NE,50,5.0,6.0,100,0.00,,,0.00,Wunderground v.1.15,2013-05-09 13:06:00,
2013-05-09 08:07:00,55.8,55.8,29.83,NE,43,4.0,6.0,100,0.00,,,0.00,Wunderground v.1.15,2013-05-09 13:07:00,
2013-05-09 08:12:00,55.8,55.8,29.83,NE,40,4.0,4.0,100,0.00,,,0.00,Wunderground v.1.15,2013-05-09 13:12:00,
2013-05-09 08:14:00,55.9,55.9,29.83,NE,53,4.0,5.0,100,0.00,,,0.00,Wunderground v.1.15,2013-05-09 13:14:00,
2013-05-09 08:16:00,55.9,55.9,29.83,NE,41,4.0,5.0,100,0.00,,,0.00,Wunderground v.1.15,2013-05-09 13:16:00,
2013-05-09 08:20:00,55.9,55.9,29.83,NE,44,4.0,4.0,100,0.00,,,0.00,Wunderground v.1.15,2013-05-09 13:20:00,
2013-05-09 08:22:00,55.9,55.9,29.83,NNE,28,4.0,4.0,100,0.00,,,0.00,Wunderground v.1.15,2013-05-09 13:22:00,
2013-05-09 08:24:00,55.9,55.9,29.83,ENE,57,4.0,4.0,100,0.00,,,0.00,Wunderground v.1.15,2013-05-09 13:24:00,
2013-05-09 08:26:00,55.9,55.9,29.83,NE,39,3.0,4.0,100,0.00,,,0.00,Wunderground v.1.15,2013-05-09 13:26:00,
2013-05-09 08:27:00,55.9,55.9,29.83,East,86,3.0,4.0,100,0.00,,,0.00,Wunderground v.1.15,2013-05-09 13:27:00,
2013-05-09 08:29:00,55.9,55.9,29.83,ENE,71,3.0,3.0,100,0.00,,,0.00,Wunderground v.1.15,2013-05-09 13:29:00,
2013-05-09 08:31:00,55.9,55.9,29.83,NE,43,3.0,3.0,100,0.00,,,0.00,Wunderground v.1.15,2013-05-09 13:31:00,
2013-05-09 08:36:00,56.0,56.0,29.83,ENE,60,4.0,7.0,100,0.00,,,0.00,Wunderground v.1.15,2013-05-09 13:36:00,
2013-05-09 08:38:00,55.9,55.9,29.83,NE,56,3.0,7.0,100,0.00,,,0.00,Wunderground v.1.15,2013-05-09 13:38:00,
2013-05-09 08:40:00,56.0,56.0,29.83,ENE,61,3.0,4.0,100,0.00,,,0.00,Wunderground v.1.15,2013-05-09 13:40:00,
2013-05-09 08:42:00,56.0,56.0,29.83,NE,43,4.0,4.0,100,0.00,,,0.00,Wunderground v.1.15,2013-05-09 13:42:00,
2013-05-09 08:46:00,56.1,56.1,29.83,NE,46,4.0,4.0,100,0.00,,,0.00,Wunderground v.1.15,2013-05-09 13:46:00,
2013-05-09 08:48:00,56.1,56.1,29.83,ENE,68,4.0,4.0,100,0.00,,,0.00,Wunderground v.1.15,2013-05-09 13:48:00,
2013-05-09 08:49:00,56.2,56.2,29.83,NE,36,4.0,4.0,100,0.00,,,0.00,Wunderground v.1.15,2013-05-09 13:49:00,
2013-05-09 08:54:00,56.3,56.3,29.83,NE,41,3.0,7.0,100,0.00,,,0.00,Wunderground v.1.15,2013-05-09 13:54:00,
2013-05-09 08:58:00,56.2,56.2,29.83,NE,51,4.0,7.0,100,0.00,,,0.00,Wunderground v.1.15,2013-05-09 13:58:00,
2013-05-09 09:00:00,56.2,56.2,29.83,ENE,60,4.0,4.0,100,0.00,,,0.00,Wunderground v.1.15,2013-05-09 14:00:00,
2013-05-09 09:02:00,56.2,56.2,29.83,NE,55,4.0,4.0,100,0.00,,,0.00,Wunderground v.1.15,2013-05-09 14:02:00,
2013-05-09 09:04:00,56.2,56.2,29.83,NE,50,4.0,4.0,100,0.00,,,0.00,Wunderground v.1.15,2013-05-09 14:04:00,
2013-05-09 09:06:00,56.2,56.2,29.83,NE,51,3.0,6.0,100,0.00,,,0.00,Wunderground v.1.15,2013-05-09 14:06:00,
2013-05-09 09:08:00,56.1,56.1,29.83,East,79,3.0,6.0,100,0.00,,,0.00,Wunderground v.1.15,2013-05-09 14:08:00,
2013-05-09 09:11:00,56.1,56.1,29.83,SE,134,4.0,5.0,100,0.00,,,0.00,Wunderground v.1.15,2013-05-09 14:11:00,
2013-05-09 09:13:00,56.2,56.2,29.83,NE,37,4.0,5.0,100,0.00,,,0.00,Wunderground v.1.15,2013-05-09 14:13:00,
2013-05-09 09:16:00,56.3,56.3,29.83,ENE,63,4.0,5.0,100,0.00,,,0.00,Wunderground v.1.15,2013-05-09 14:16:00,
2013-05-09 09:20:00,56.5,56.5,29.83,NE,40,4.0,4.0,100,0.00,,,0.00,Wunderground v.1.15,2013-05-09 14:20:00,
2013-05-09 09:24:00,56.7,56.7,29.83,NE,53,4.0,5.0,100,0.00,,,0.00,Wunderground v.1.15,2013-05-09 14:24:00,
2013-05-09 09:28:00,56.9,56.9,29.83,ENE,63,4.0,5.0,100,0.00,,,0.00,Wunderground v.1.15,2013-05-09 14:28:00,
2013-05-09 09:30:00,57.0,57.0,29.83,ENE,65,3.0,3.0,100,0.00,,,0.00,Wunderground v.1.15,2013-05-09 14:30:00,
2013-05-09 09:35:00,56.8,56.8,29.83,NE,55,3.0,6.0,100,0.00,,,0.00,Wunderground v.1.15,2013-05-09 14:35:00,
2013-05-09 09:38:00,57.0,57.0,29.83,ENE,58,3.0,6.0,100,0.00,,,0.00,Wunderground v.1.15,2013-05-09 14:38:00,
2013-05-09 09:42:00,57.0,57.0,29.83,ENE,58,2.0,3.0,100,0.00,,,0.00,Wunderground v.1.15,2013-05-09 14:42:00,
2013-05-09 09:44:00,57.0,57.0,29.83,NE,53,2.0,3.0,100,0.00,,,0.00,Wunderground v.1.15,2013-05-09 14:44:00,
2013-05-09 09:46:00,57.0,57.0,29.83,ENE,61,2.0,4.0,100,0.00,,,0.00,Wunderground v.1.15,2013-05-09 14:46:00,
2013-05-09 09:52:00,57.0,57.0,29.83,ENE,77,4.0,4.0,100,0.00,,,0.00,Wunderground v.1.15,2013-05-09 14:52:00,
2013-05-09 09:53:00,57.0,57.0,29.83,NE,46,4.0,4.0,100,0.00,,,0.00,Wunderground v.1.15,2013-05-09 14:53:00,
2013-05-09 09:58:00,57.1,57.1,29.83,NE,55,4.0,5.0,100,0.00,,,0.00,Wunderground v.1.15,2013-05-09 14:58:00,
2013-05-09 10:00:00,57.2,57.2,29.83,NE,44,3.0,4.0,100,0.00,,,0.00,Wunderground v.1.15,2013-05-09 15:00:00,
2013-05-09 10:02:00,57.2,57.2,29.83,NE,53,3.0,4.0,100,0.00,,,0.00,Wunderground v.1.15,2013-05-09 15:02:00,
2013-05-09 10:04:00,57.3,57.3,29.84,NE,44,3.0,4.0,100,0.00,,,0.00,Wunderground v.1.15,2013-05-09 15:04:00,
2013-05-09 10:06:00,57.4,57.4,29.84,East,84,3.0,4.0,100,0.00,,,0.00,Wunderground v.1.15,2013-05-09 15:06:00,
2013-05-09 10:08:00,57.5,57.5,29.84,ENE,68,2.0,4.0,100,0.00,,,0.00,Wunderground v.1.15,2013-05-09 15:08:00,
2013-05-09 10:12:00,57.6,57.6,29.84,ENE,75,2.0,2.0,100,0.00,,,0.00,Wunderground v.1.15,2013-05-09 15:12:00,
2013-05-09 10:14:00,57.5,57.5,29.84,ENE,73,2.0,4.0,100,0.00,,,0.00,Wunderground v.1.15,2013-05-09 15:14:00,
2013-05-09 10:20:00,57.6,57.3,29.84,NE,55,3.0,5.0,99,0.00,,,0.00,Wunderground v.1.15,2013-05-09 15:20:00,
2013-05-09 10:22:00,57.7,57.4,29.84,NE,56,4.0,9.0,99,0.00,,,0.00,Wunderground v.1.15,2013-05-09 15:22:00,
2013-05-09 10:26:00,57.8,57.2,29.84,East,98,4.0,9.0,98,0.00,,,0.00,Wunderground v.1.15,2013-05-09 15:26:00,
2013-05-09 10:28:00,57.9,57.3,29.84,NE,44,4.0,9.0,98,0.00,,,0.00,Wunderground v.1.15,2013-05-09 15:28:00,
2013-05-09 10:30:00,57.9,57.3,29.84,NE,46,5.0,5.0,98,0.00,,,0.00,Wunderground v.1.15,2013-05-09 15:30:00,
2013-05-09 10:34:00,58.2,57.4,29.84,ENE,57,6.0,6.0,97,0.00,,,0.00,Wunderground v.1.15,2013-05-09 15:34:00,
2013-05-09 10:35:00,58.2,57.1,29.84,NE,55,5.0,6.0,96,0.00,,,0.00,Wunderground v.1.15,2013-05-09 15:35:00,
2013-05-09 10:39:00,58.4,57.3,29.84,ENE,57,5.0,5.0,96,0.00,,,0.00,Wunderground v.1.15,2013-05-09 15:39:00,
2013-05-09 10:42:00,58.6,57.5,29.84,NE,48,5.0,7.0,96,0.00,,,0.00,Wunderground v.1.15,2013-05-09 15:42:00,
2013-05-09 10:44:00,58.8,57.7,29.84,NE,48,5.0,7.0,96,0.00,,,0.00,Wunderground v.1.15,2013-05-09 15:44:00,
2013-05-09 10:48:00,59.1,57.7,29.84,NE,46,6.0,8.0,95,0.00,,,0.00,Wunderground v.1.15,2013-05-09 15:48:00,
2013-05-09 10:50:00,59.1,57.4,29.84,NE,43,6.0,7.0,94,0.00,,,0.00,Wunderground v.1.15,2013-05-09 15:50:00,
2013-05-09 10:54:00,59.1,57.1,29.84,NE,49,7.0,7.0,93,0.00,,,0.00,Wunderground v.1.15,2013-05-09 15:54:00,
2013-05-09 10:56:00,59.1,57.1,29.84,NE,51,6.0,7.0,93,0.00,,,0.00,Wunderground v.1.15,2013-05-09 15:56:00,
2013-05-09 10:57:00,59.2,57.5,29.84,NE,47,5.0,7.0,94,0.00,,,0.00,Wunderground v.1.15,2013-05-09 15:57:00,
2013-05-09 11:02:00,59.3,57.3,29.84,NE,55,5.0,7.0,93,0.00,,,0.00,Wunderground v.1.15,2013-05-09 16:02:00,
2013-05-09 11:04:00,59.3,57.0,29.84,NE,45,5.0,7.0,92,0.00,,,0.00,Wunderground v.1.15,2013-05-09 16:04:00,
2013-05-09 11:06:00,59.3,57.0,29.84,NE,53,6.0,7.0,92,0.00,,,0.00,Wunderground v.1.15,2013-05-09 16:06:00,
2013-05-09 11:10:00,59.2,56.6,29.84,ENE,60,7.0,7.0,91,0.00,,,0.00,Wunderground v.1.15,2013-05-09 16:10:00,
2013-05-09 11:12:00,59.3,57.0,29.84,NE,55,7.0,7.0,92,0.00,,,0.00,Wunderground v.1.15,2013-05-09 16:12:00,
2013-05-09 11:14:00,59.3,57.0,29.84,NE,45,7.0,15.0,92,0.00,,,0.00,Wunderground v.1.15,2013-05-09 16:14:00,
2013-05-09 11:18:00,59.3,56.7,29.84,NNE,20,8.0,15.0,91,0.00,,,0.00,Wunderground v.1.15,2013-05-09 16:18:00,
2013-05-09 11:19:00,59.4,57.1,29.84,NNE,23,9.0,10.0,92,0.00,,,0.00,Wunderground v.1.15,2013-05-09 16:19:00,
2013-05-09 11:26:00,59.1,57.4,29.84,NNE,32,11.0,11.0,94,0.00,,,0.00,Wunderground v.1.15,2013-05-09 16:26:00,
2013-05-09 11:28:00,59.1,57.4,29.84,NNE,23,11.0,11.0,94,0.00,,,0.00,Wunderground v.1.15,2013-05-09 16:28:00,
2013-05-09 11:30:00,59.0,57.3,29.84,NNE,20,12.0,13.0,94,0.00,,,0.00,Wunderground v.1.15,2013-05-09 16:30:00,
2013-05-09 11:34:00,58.9,57.2,29.84,NE,39,12.0,13.0,94,0.00,,,0.00,Wunderground v.1.15,2013-05-09 16:34:00,
2013-05-09 11:36:00,58.9,56.9,29.84,NE,34,13.0,13.0,93,0.00,,,0.00,Wunderground v.1.15,2013-05-09 16:36:00,
2013-05-09 11:41:00,59.1,57.4,29.84,NE,44,12.0,15.0,94,0.00,,,0.00,Wunderground v.1.15,2013-05-09 16:41:00,
2013-05-09 11:43:00,59.1,57.1,29.84,NE,39,12.0,15.0,93,0.00,,,0.00,Wunderground v.1.15,2013-05-09 16:43:00,
2013-05-09 11:46:00,59.1,57.1,29.84,NNE,28,11.0,15.0,93,0.00,,,0.00,Wunderground v.1.15,2013-05-09 16:46:00,
2013-05-09 11:48:00,59.1,57.1,29.85,NNE,29,12.0,15.0,93,0.00,,,0.00,Wunderground v.1.15,2013-05-09 16:48:00,
2013-05-09 11:50:00,58.9,56.9,29.85,NE,43,12.0,15.0,93,0.00,,,0.00,Wunderground v.1.15,2013-05-09 16:50:00,
2013-05-09 11:54:00,58.6,56.6,29.85,NNE,25,13.0,15.0,93,0.00,,,0.00,Wunderground v.1.15,2013-05-09 16:54:00,
2013-05-09 11:56:00,58.6,56.9,29.85,NNE,23,12.0,15.0,94,0.00,,,0.00,Wunderground v.1.15,2013-05-09 16:56:00,
2013-05-09 11:58:00,58.6,56.9,29.85,NE,41,12.0,15.0,94,0.00,,,0.00,Wunderground v.1.15,2013-05-09 16:58:00,
2013-05-09 12:01:00,58.6,56.9,29.85,NNE,29,11.0,12.0,94,0.00,,,0.00,Wunderground v.1.15,2013-05-09 17:01:00,
2013-05-09 12:08:00,58.5,57.1,29.85,NNE,18,12.0,13.0,95,0.00,,,0.00,Wunderground v.1.15,2013-05-09 17:08:00,
2013-05-09 12:10:00,58.5,57.1,29.85,NNE,21,12.0,13.0,95,0.00,,,0.00,Wunderground v.1.15,2013-05-09 17:10:00,
2013-05-09 12:14:00,58.2,56.5,29.85,NE,38,13.0,14.0,94,0.00,,,0.00,Wunderground v.1.15,2013-05-09 17:14:00,
2013-05-09 12:16:00,57.9,56.2,29.85,NNE,18,13.0,15.0,94,0.00,,,0.00,Wunderground v.1.15,2013-05-09 17:16:00,
2013-05-09 12:18:00,57.6,55.9,29.85,NNE,30,14.0,15.0,94,0.00,,,0.00,Wunderground v.1.15,2013-05-09 17:18:00,
2013-05-09 12:20:00,57.5,56.1,29.85,NE,43,14.0,14.0,95,0.00,,,0.00,Wunderground v.1.15,2013-05-09 17:20:00,
2013-05-09 12:23:00,57.2,56.1,29.85,NE,44,13.0,14.0,96,0.00,,,0.00,Wunderground v.1.15,2013-05-09 17:23:00,
2013-05-09 12:25:00,57.2,56.1,29.85,NE,51,12.0,14.0,96,0.00,,,0.00,Wunderground v.1.15,2013-05-09 17:25:00,
2013-05-09 12:30:00,57.1,56.0,29.85,NNE,25,12.0,12.0,96,0.00,,,0.00,Wunderground v.1.15,2013-05-09 17:30:00,
2013-05-09 12:34:00,57.2,56.4,29.85,North,11,11.0,12.0,97,0.00,,,0.00,Wunderground v.1.15,2013-05-09 17:34:00,
2013-05-09 12:36:00,57.1,56.3,29.85,NE,35,12.0,12.0,97,0.00,,,0.00,Wunderground v.1.15,2013-05-09 17:36:00,
2013-05-09 12:38:00,57.1,56.3,29.85,NNE,20,12.0,13.0,97,0.00,,,0.00,Wunderground v.1.15,2013-05-09 17:38:00,
2013-05-09 12:44:00,57.1,56.3,29.84,NE,39,13.0,15.0,97,0.00,,,0.00,Wunderground v.1.15,2013-05-09 17:44:00,
2013-05-09 12:46:00,57.1,56.3,29.85,NE,37,13.0,16.0,97,0.00,,,0.00,Wunderground v.1.15,2013-05-09 17:46:00,
2013-05-09 12:48:00,57.0,56.2,29.85,NE,43,13.0,16.0,97,0.00,,,0.00,Wunderground v.1.15,2013-05-09 17:48:00,
2013-05-09 12:49:00,57.0,56.2,29.85,NNE,23,13.0,13.0,97,0.00,,,0.00,Wunderground v.1.15,2013-05-09 17:49:00,
2013-05-09 12:51:00,57.0,56.2,29.85,NE,49,13.0,13.0,97,0.00,,,0.00,Wunderground v.1.15,2013-05-09 17:51:00,
2013-05-09 12:56:00,57.1,56.3,29.85,NE,37,13.0,13.0,97,0.00,,,0.00,Wunderground v.1.15,2013-05-09 17:56:00,
2013-05-09 13:00:00,57.3,56.2,29.85,NNE,28,12.0,12.0,96,0.00,,,0.00,Wunderground v.1.15,2013-05-09 18:00:00,
2013-05-09 13:04:00,57.4,56.3,29.85,NE,36,12.0,18.0,96,0.00,,,0.00,Wunderground v.1.15,2013-05-09 18:04:00,
2013-05-09 13:06:00,57.5,56.1,29.85,NE,34,11.0,18.0,95,0.00,,,0.00,Wunderground v.1.15,2013-05-09 18:06:00,
2013-05-09 13:08:00,57.6,56.2,29.85,NE,46,12.0,18.0,95,0.00,,,0.00,Wunderground v.1.15,2013-05-09 18:08:00,
2013-05-09 13:09:00,57.8,56.7,29.85,NNE,18,11.0,18.0,96,0.00,,,0.00,Wunderground v.1.15,2013-05-09 18:09:00,
2013-05-09 13:14:00,57.7,56.3,29.85,NE,39,11.0,18.0,95,0.00,,,0.00,Wunderground v.1.15,2013-05-09 18:14:00,
2013-05-09 13:18:00,57.6,56.2,29.85,NE,49,11.0,18.0,95,0.00,,,0.00,Wunderground v.1.15,2013-05-09 18:18:00,
2013-05-09 13:22:00,57.5,56.1,29.85,NNE,27,10.0,18.0,95,0.00,,,0.00,Wunderground v.1.15,2013-05-09 18:22:00,
2013-05-09 13:24:00,57.4,56.0,29.85,NE,44,10.0,18.0,95,0.00,,,0.00,Wunderground v.1.15,2013-05-09 18:24:00,
2013-05-09 13:26:00,57.4,56.0,29.85,NE,44,10.0,18.0,95,0.00,,,0.00,Wunderground v.1.15,2013-05-09 18:26:00,
2013-05-09 13:30:00,57.4,56.0,29.85,NNE,25,10.0,18.0,95,0.00,,,0.00,Wunderground v.1.15,2013-05-09 18:30:00,
2013-05-09 13:31:00,57.4,56.0,29.85,NE,53,10.0,18.0,95,0.00,,,0.00,Wunderground v.1.15,2013-05-09 18:31:00,
2013-05-09 13:36:00,57.3,55.9,29.85,ENE,59,10.0,18.0,95,0.00,,,0.00,Wunderground v.1.15,2013-05-09 18:36:00,
2013-05-09 13:38:00,57.3,55.9,29.85,NNE,23,10.0,18.0,95,0.00,,,0.00,Wunderground v.1.15,2013-05-09 18:38:00,
2013-05-09 13:40:00,57.4,56.0,29.85,ENE,58,10.0,18.0,95,0.00,,,0.00,Wunderground v.1.15,2013-05-09 18:40:00,
2013-05-09 13:44:00,57.4,55.7,29.85,NE,43,11.0,18.0,94,0.00,,,0.00,Wunderground v.1.15,2013-05-09 18:44:00,
2013-05-09 13:46:00,57.4,55.7,29.85,NE,44,11.0,18.0,94,0.00,,,0.00,Wunderground v.1.15,2013-05-09 18:46:00,
2013-05-09 13:48:00,57.4,55.7,29.85,North,10,11.0,18.0,94,0.00,,,0.00,Wunderground v.1.15,2013-05-09 18:48:00,
2013-05-09 13:50:00,57.4,55.7,29.85,ENE,67,11.0,18.0,94,0.00,,,0.00,Wunderground v.1.15,2013-05-09 18:50:00,
2013-05-09 13:52:00,57.4,55.7,29.85,NE,40,10.0,18.0,94,0.00,,,0.00,Wunderground v.1.15,2013-05-09 18:52:00,
2013-05-09 13:55:00,57.4,55.7,29.85,NNE,29,10.0,18.0,94,0.00,,,0.00,Wunderground v.1.15,2013-05-09 18:55:00,
2013-05-09 13:58:00,57.2,55.5,29.85,NE,39,12.0,18.0,94,0.00,,,0.00,Wunderground v.1.15,2013-05-09 18:58:00,
2013-05-09 14:02:00,57.2,55.2,29.85,NE,37,13.0,18.0,93,0.00,,,0.00,Wunderground v.1.15,2013-05-09 19:02:00,
2013-05-09 14:04:00,57.2,55.2,29.85,NE,34,14.0,18.0,93,0.00,,,0.00,Wunderground v.1.15,2013-05-09 19:04:00,
2013-05-09 14:08:00,57.3,55.3,29.85,NE,34,14.0,18.0,93,0.00,,,0.00,Wunderground v.1.15,2013-05-09 19:08:00,
2013-05-09 14:10:00,57.4,55.4,29.85,NNE,30,14.0,18.0,93,0.00,,,0.00,Wunderground v.1.15,2013-05-09 19:10:00,
2013-05-09 14:12:00,57.5,55.5,29.85,NNE,23,13.0,18.0,93,0.00,,,0.00,Wunderground v.1.15,2013-05-09 19:12:00,
2013-05-09 14:13:00,57.6,55.3,29.85,NE,43,13.0,18.0,92,0.00,,,0.00,Wunderground v.1.15,2013-05-09 19:13:00,
2013-05-09 14:18:00,57.9,55.6,29.85,NNE,30,13.0,18.0,92,0.00,,,0.00,Wunderground v.1.15,2013-05-09 19:18:00,
2013-05-09 14:20:00,58.0,56.0,29.85,NE,37,12.0,18.0,93,0.00,,,0.00,Wunderground v.1.15,2013-05-09 19:20:00,
2013-05-09 14:22:00,58.1,55.8,29.85,NNE,28,12.0,18.0,92,0.00,,,0.00,Wunderground v.1.15,2013-05-09 19:22:00,
2013-05-09 14:24:00,58.3,56.0,29.85,NNE,18,12.0,18.0,92,0.00,,,0.00,Wunderground v.1.15,2013-05-09 19:24:00,
2013-05-09 14:26:00,58.3,56.0,29.85,NNE,29,12.0,18.0,92,0.00,,,0.00,Wunderground v.1.15,2013-05-09 19:26:00,
2013-05-09 14:28:00,58.3,56.0,29.85,NE,35,12.0,18.0,92,0.00,,,0.00,Wunderground v.1.15,2013-05-09 19:28:00,
2013-05-09 14:32:00,58.3,55.7,29.85,NE,51,12.0,18.0,91,0.00,,,0.00,Wunderground v.1.15,2013-05-09 19:32:00,
2013-05-09 14:35:00,58.4,55.8,29.85,NNE,25,11.0,18.0,91,0.00,,,0.00,Wunderground v.1.15,2013-05-09 19:35:00,
2013-05-09 14:37:00,58.5,55.9,29.85,NE,39,11.0,18.0,91,0.00,,,0.00,Wunderground v.1.15,2013-05-09 19:37:00,
2013-05-09 14:42:00,58.7,55.8,29.85,NE,49,11.0,18.0,90,0.00,,,0.00,Wunderground v.1.15,2013-05-09 19:42:00,
2013-05-09 14:44:00,58.7,55.8,29.85,NE,43,12.0,18.0,90,0.00,,,0.00,Wunderground v.1.15,2013-05-09 19:44:00,
2013-05-09 14:48:00,58.6,55.7,29.85,NE,40,11.0,18.0,90,0.00,,,0.00,Wunderground v.1.15,2013-05-09 19:48:00,
2013-05-09 14:50:00,58.6,55.7,29.85,NE,43,11.0,18.0,90,0.00,,,0.00,Wunderground v.1.15,2013-05-09 19:50:00,
2013-05-09 14:52:00,58.6,55.7,29.85,NNE,23,11.0,18.0,90,0.00,,,0.00,Wunderground v.1.15,2013-05-09 19:52:00,
2013-05-09 14:54:00,58.5,55.9,29.85,NNE,18,11.0,18.0,91,0.00,,,0.00,Wunderground v.1.15,2013-05-09 19:54:00,
2013-05-09 14:57:00,58.4,55.5,29.85,NE,36,12.0,18.0,90,0.00,,,0.00,Wunderground v.1.15,2013-05-09 19:57:00,
2013-05-09 14:59:00,58.3,55.4,29.85,NE,43,12.0,18.0,90,0.00,,,0.00,Wunderground v.1.15,2013-05-09 19:59:00,
2013-05-09 15:04:00,57.9,55.0,29.85,NE,37,13.0,18.0,90,0.00,,,0.00,Wunderground v.1.15,2013-05-09 20:04:00,
2013-05-09 15:06:00,57.8,55.2,29.85,NE,51,13.0,18.0,91,0.00,,,0.00,Wunderground v.1.15,2013-05-09 20:06:00,
2013-05-09 15:08:00,57.6,54.7,29.86,NE,42,13.0,18.0,90,0.00,,,0.00,Wunderground v.1.15,2013-05-09 20:08:00,
2013-05-09 15:12:00,57.5,54.9,29.86,NNE,32,12.0,18.0,91,0.00,,,0.00,Wunderground v.1.15,2013-05-09 20:12:00,
2013-05-09 15:14:00,57.5,54.9,29.86,NNE,30,11.0,18.0,91,0.00,,,0.00,Wunderground v.1.15,2013-05-09 20:14:00,
2013-05-09 15:17:00,57.6,55.0,29.85,NE,38,11.0,18.0,91,0.00,,,0.00,Wunderground v.1.15,2013-05-09 20:17:00,
2013-05-09 15:19:00,57.7,55.1,29.85,NE,49,10.0,18.0,91,0.00,,,0.00,Wunderground v.1.15,2013-05-09 20:19:00,
2013-05-09 15:22:00,57.8,54.6,29.85,NNE,28,11.0,18.0,89,0.00,,,0.00,Wunderground v.1.15,2013-05-09 20:22:00,
2013-05-09 15:24:00,57.8,54.6,29.85,NE,46,11.0,18.0,89,0.00,,,0.00,Wunderground v.1.15,2013-05-09 20:24:00,
2013-05-09 15:28:00,57.9,55.0,29.85,NNE,28,11.0,18.0,90,0.00,,,0.00,Wunderground v.1.15,2013-05-09 20:28:00,
2013-05-09 15:34:00,58.2,54.7,29.85,NE,38,10.0,18.0,88,0.00,,,0.00,Wunderground v.1.15,2013-05-09 20:34:00,
2013-05-09 15:36:00,58.3,54.4,29.85,NNE,27,9.0,18.0,87,0.00,,,0.00,Wunderground v.1.15,2013-05-09 20:36:00,
2013-05-09 15:38:00,58.4,54.2,29.85,NE,44,9.0,18.0,86,0.00,,,0.00,Wunderground v.1.15,2013-05-09 20:38:00,
2013-05-09 15:39:00,58.6,54.4,29.85,NE,44,9.0,9.0,86,0.00,,,0.00,Wunderground v.1.15,2013-05-09 20:39:00,
2013-05-09 15:44:00,58.8,54.6,29.85,NE,40,9.0,18.0,86,0.00,,,0.00,Wunderground v.1.15,2013-05-09 20:44:00,
2013-05-09 15:48:00,59.0,54.8,29.85,NE,45,9.0,18.0,86,0.00,,,0.00,Wunderground v.1.15,2013-05-09 20:48:00,
2013-05-09 15:50:00,59.0,55.1,29.85,NE,53,9.0,18.0,87,0.00,,,0.00,Wunderground v.1.15,2013-05-09 20:50:00,
2013-05-09 15:52:00,59.0,55.1,29.85,ENE,62,9.0,18.0,87,0.00,,,0.00,Wunderground v.1.15,2013-05-09 20:52:00,
2013-05-09 15:56:00,59.2,55.6,29.85,NE,53,9.0,18.0,88,0.00,,,0.00,Wunderground v.1.15,2013-05-09 20:56:00,
2013-05-09 15:58:00,59.3,55.7,29.85,NE,49,9.0,18.0,88,0.00,,,0.00,Wunderground v.1.15,2013-05-09 20:58:00,
2013-05-09 16:01:00,59.7,56.1,29.85,NE,45,8.0,18.0,88,0.00,,,0.00,Wunderground v.1.15,2013-05-09 21:01:00,
2013-05-09 16:03:00,59.8,55.9,29.85,NE,53,8.0,18.0,87,0.00,,,0.00,Wunderground v.1.15,2013-05-09 21:03:00,
2013-05-09 16:08:00,60.0,55.5,29.84,NE,46,9.0,18.0,85,0.00,,,0.00,Wunderground v.1.15,2013-05-09 21:08:00,
2013-05-09 16:10:00,60.1,55.6,29.84,NE,43,9.0,9.0,85,0.00,,,0.00,Wunderground v.1.15,2013-05-09 21:10:00,
2013-05-09 16:12:00,60.0,55.2,29.84,NE,44,9.0,18.0,84,0.00,,,0.00,Wunderground v.1.15,2013-05-09 21:12:00,
2013-05-09 16:14:00,59.9,55.4,29.84,NE,43,9.0,18.0,85,0.00,,,0.00,Wunderground v.1.15,2013-05-09 21:14:00,
2013-05-09 16:18:00,59.7,55.2,29.84,NNE,28,10.0,18.0,85,0.00,,,0.00,Wunderground v.1.15,2013-05-09 21:18:00,
2013-05-09 16:20:00,59.7,55.2,29.84,NE,50,10.0,18.0,85,0.00,,,0.00,Wunderground v.1.15,2013-05-09 21:20:00,
2013-05-09 16:23:00,59.6,55.1,29.84,NE,43,11.0,18.0,85,0.00,,,0.00,Wunderground v.1.15,2013-05-09 21:23:00,
2013-05-09 16:26:00,59.6,55.4,29.84,NNE,32,11.0,18.0,86,0.00,,,0.00,Wunderground v.1.15,2013-05-09 21:26:00,
2013-05-09 16:30:00,59.9,54.4,29.84,NE,37,11.0,18.0,82,0.00,,,0.00,Wunderground v.1.15,2013-05-09 21:30:00,
2013-05-09 16:32:00,60.2,54.7,29.84,NNE,23,11.0,18.0,82,0.00,,,0.00,Wunderground v.1.15,2013-05-09 21:32:00,
2013-05-09 16:34:00,60.5,55.0,29.84,NE,53,12.0,18.0,82,0.00,,,0.00,Wunderground v.1.15,2013-05-09 21:34:00,
2013-05-09 16:36:00,60.9,55.0,29.84,ENE,64,12.0,18.0,81,0.00,,,0.00,Wunderground v.1.15,2013-05-09 21:36:00,
2013-05-09 16:38:00,61.2,55.0,29.84,NE,43,13.0,18.0,80,0.00,,,0.00,Wunderground v.1.15,2013-05-09 21:38:00,
2013-05-09 16:43:00,61.6,54.3,29.84,NE,43,13.0,18.0,77,0.00,,,0.00,Wunderground v.1.15,2013-05-09 21:43:00,
2013-05-09 16:45:00,61.4,54.5,29.84,NE,39,13.0,18.0,78,0.00,,,0.00,Wunderground v.1.15,2013-05-09 21:45:00,
2013-05-09 16:48:00,61.2,54.3,29.84,NE,48,13.0,19.0,78,0.00,,,0.00,Wunderground v.1.15,2013-05-09 21:48:00,
2013-05-09 16:54:00,60.7,54.5,29.85,NNE,22,12.0,18.0,80,0.00,,,0.00,Wunderground v.1.15,2013-05-09 21:54:00,
2013-05-09 16:56:00,60.7,54.8,29.84,NE,43,12.0,18.0,81,0.00,,,0.00,Wunderground v.1.15,2013-05-09 21:56:00,
2013-05-09 16:58:00,60.7,54.8,29.85,NE,44,12.0,18.0,81,0.00,,,0.00,Wunderground v.1.15,2013-05-09 21:58:00,
2013-05-09 17:00:00,60.7,55.2,29.85,NE,50,13.0,18.0,82,0.00,,,0.00,Wunderground v.1.15,2013-05-09 22:00:00,
2013-05-09 17:02:00,60.6,55.4,29.84,NE,41,14.0,18.0,83,0.00,,,0.00,Wunderground v.1.15,2013-05-09 22:02:00,
2013-05-09 17:04:00,60.5,56.0,29.85,NNE,23,15.0,18.0,85,0.00,,,0.00,Wunderground v.1.15,2013-05-09 22:04:00,
2013-05-09 17:05:00,60.5,55.6,29.85,NE,38,15.0,18.0,84,0.00,,,0.00,Wunderground v.1.15,2013-05-09 22:05:00,
2013-05-09 17:07:00,60.4,55.9,29.84,NNE,28,15.0,18.0,85,0.00,,,0.00,Wunderground v.1.15,2013-05-09 22:07:00,
2013-05-09 17:10:00,60.3,55.4,29.84,NNE,19,15.0,15.0,84,0.00,,,0.00,Wunderground v.1.15,2013-05-09 22:10:00,
2013-05-09 17:14:00,60.3,55.4,29.84,NE,43,14.0,18.0,84,0.00,,,0.00,Wunderground v.1.15,2013-05-09 22:14:00,
2013-05-09 17:16:00,60.3,55.1,29.84,NNE,29,14.0,18.0,83,0.00,,,0.00,Wunderground v.1.15,2013-05-09 22:16:00,
2013-05-09 17:18:00,60.3,55.4,29.84,NE,36,14.0,18.0,84,0.00,,,0.00,Wunderground v.1.15,2013-05-09 22:18:00,
2013-05-09 17:20:00,60.2,55.0,29.85,NE,49,13.0,18.0,83,0.00,,,0.00,Wunderground v.1.15,2013-05-09 22:20:00,
2013-05-09 17:22:00,60.0,55.2,29.85,NNE,18,14.0,22.0,84,0.00,,,0.00,Wunderground v.1.15,2013-05-09 22:22:00,
2013-05-09 17:25:00,59.6,55.4,29.85,NNE,18,15.0,22.0,86,0.00,,,0.00,Wunderground v.1.15,2013-05-09 22:25:00,
2013-05-09 17:27:00,59.6,55.1,29.85,NNE,33,16.0,22.0,85,0.00,,,0.00,Wunderground v.1.15,2013-05-09 22:27:00,
2013-05-09 17:32:00,59.5,55.3,29.85,NNE,18,17.0,22.0,86,0.00,,,0.00,Wunderground v.1.15,2013-05-09 22:32:00,
2013-05-09 17:36:00,59.3,55.1,29.85,NNE,32,18.0,22.0,86,0.00,,,0.00,Wunderground v.1.15,2013-05-09 22:36:00,
2013-05-09 17:38:00,59.3,55.4,29.85,NNE,27,17.0,22.0,87,0.00,,,0.00,Wunderground v.1.15,2013-05-09 22:38:00,
2013-05-09 17:40:00,59.3,55.4,29.85,NE,39,17.0,19.0,87,0.00,,,0.00,Wunderground v.1.15,2013-05-09 22:40:00,
2013-05-09 17:46:00,59.3,55.1,29.85,NE,46,17.0,19.0,86,0.00,,,0.00,Wunderground v.1.15,2013-05-09 22:46:00,
2013-05-09 17:47:00,59.2,54.7,29.85,NE,38,17.0,19.0,85,0.00,,,0.00,Wunderground v.1.15,2013-05-09 22:47:00,
2013-05-09 17:49:00,59.3,54.8,29.85,NE,46,16.0,16.0,85,0.00,,,0.00,Wunderground v.1.15,2013-05-09 22:49:00,
2013-05-09 17:52:00,59.2,55.0,29.85,NE,34,16.0,18.0,86,0.00,,,0.00,Wunderground v.1.15,2013-05-09 22:52:00,
2013-05-09 17:56:00,59.3,55.1,29.85,NE,43,15.0,18.0,86,0.00,,,0.00,Wunderground v.1.15,2013-05-09 22:56:00,
2013-05-09 17:58:00,59.3,55.1,29.85,NE,40,15.0,18.0,86,0.00,,,0.00,Wunderground v.1.15,2013-05-09 22:58:00,
2013-05-09 18:00:00,59.5,55.3,29.85,NNE,20,15.0,23.0,86,0.00,,,0.00,Wunderground v.1.15,2013-05-09 23:00:00,
2013-05-09 18:02:00,59.6,55.1,29.85,NNE,16,16.0,23.0,85,0.00,,,0.00,Wunderground v.1.15,2013-05-09 23:02:00,
2013-05-09 18:04:00,59.7,54.9,29.85,NNE,28,17.0,23.0,84,0.00,,,0.00,Wunderground v.1.15,2013-05-09 23:04:00,
2013-05-09 18:06:00,59.8,55.0,29.85,NNE,27,17.0,23.0,84,0.00,,,0.00,Wunderground v.1.15,2013-05-09 23:06:00,
2013-05-09 18:09:00,59.8,55.0,29.85,NNE,16,18.0,19.0,84,0.00,,,0.00,Wunderground v.1.15,2013-05-09 23:09:00,
2013-05-09 18:11:00,59.8,55.6,29.86,NE,46,17.0,19.0,86,0.00,,,0.00,Wunderground v.1.15,2013-05-09 23:11:00,
2013-05-09 18:14:00,59.5,55.0,29.86,NNE,26,18.0,20.0,85,0.00,,,0.00,Wunderground v.1.15,2013-05-09 23:14:00,
2013-05-09 18:16:00,59.2,54.7,29.85,NNE,22,18.0,20.0,85,0.00,,,0.00,Wunderground v.1.15,2013-05-09 23:16:00,
2013-05-09 18:18:00,58.9,54.7,29.86,NE,44,18.0,21.0,86,0.00,,,0.00,Wunderground v.1.15,2013-05-09 23:18:00,
2013-05-09 18:20:00,58.6,54.4,29.86,NNE,16,18.0,18.0,86,0.00,,,0.00,Wunderground v.1.15,2013-05-09 23:20:00,
2013-05-09 18:22:00,58.4,54.2,29.86,NE,34,18.0,19.0,86,0.00,,,0.00,Wunderground v.1.15,2013-05-09 23:22:00,
2013-05-09 18:26:00,58.1,54.2,29.86,NNE,23,17.0,19.0,87,0.00,,,0.00,Wunderground v.1.15,2013-05-09 23:26:00,
2013-05-09 18:28:00,58.1,54.6,29.87,NNE,32,17.0,19.0,88,0.00,,,0.00,Wunderground v.1.15,2013-05-09 23:28:00,
2013-05-09 18:34:00,57.8,54.3,29.87,NE,44,17.0,18.0,88,0.00,,,0.00,Wunderground v.1.15,2013-05-09 23:34:00,
2013-05-09 18:36:00,57.7,54.2,29.87,NNE,15,17.0,18.0,88,0.00,,,0.00,Wunderground v.1.15,2013-05-09 23:36:00,
2013-05-09 18:38:00,57.6,54.1,29.87,NNE,26,17.0,18.0,88,0.00,,,0.00,Wunderground v.1.15,2013-05-09 23:38:00,
2013-05-09 18:42:00,57.2,53.7,29.87,NNE,28,18.0,22.0,88,0.00,,,0.00,Wunderground v.1.15,2013-05-09 23:42:00,
2013-05-09 18:44:00,57.1,53.6,29.87,NNE,15,18.0,22.0,88,0.00,,,0.00,Wunderground v.1.15,2013-05-09 23:44:00,
2013-05-09 18:46:00,56.9,53.4,29.87,NE,37,18.0,22.0,88,0.00,,,0.00,Wunderground v.1.15,2013-05-09 23:46:00,
2013-05-09 18:48:00,56.8,53.6,29.88,NNE,27,18.0,22.0,89,0.00,,,0.00,Wunderground v.1.15,2013-05-09 23:48:00,
2013-05-09 18:50:00,56.7,53.2,29.88,North,5,18.0,18.0,88,0.00,,,0.00,Wunderground v.1.15,2013-05-09 23:50:00,
2013-05-09 18:51:00,56.6,53.1,29.88,NNE,26,18.0,18.0,88,0.00,,,0.00,Wunderground v.1.15,2013-05-09 23:51:00,
2013-05-09 18:53:00,56.4,52.9,29.88,NNE,32,18.0,20.0,88,0.00,,,0.00,Wunderground v.1.15,2013-05-09 23:53:00,
2013-05-09 18:56:00,56.3,52.8,29.88,NNE,28,18.0,20.0,88,0.00,,,0.00,Wunderground v.1.15,2013-05-09 23:56:00,
2013-05-09 18:58:00,56.2,53.0,29.88,NNE,32,18.0,20.0,89,0.00,,,0.00,Wunderground v.1.15,2013-05-09 23:58:00,
2013-05-09 19:00:00,56.1,52.9,29.89,NNE,15,18.0,18.0,89,0.00,,,0.00,Wunderground v.1.15,2013-05-10 00:00:00,
2013-05-09 19:02:00,56.0,52.8,29.89,NNE,33,18.0,18.0,89,0.00,,,0.00,Wunderground v.1.15,2013-05-10 00:02:00,
2013-05-09 19:04:00,55.8,52.6,29.89,NNE,27,17.0,18.0,89,0.00,,,0.00,Wunderground v.1.15,2013-05-10 00:04:00,
2013-05-09 19:08:00,55.5,52.3,29.89,North,360,17.0,18.0,89,0.00,,,0.00,Wunderground v.1.15,2013-05-10 00:08:00,
2013-05-09 19:10:00,55.5,52.3,29.89,NNE,21,17.0,17.0,89,0.00,,,0.00,Wunderground v.1.15,2013-05-10 00:10:00,
2013-05-09 19:12:00,55.4,52.2,29.89,NNE,18,17.0,18.0,89,0.00,,,0.00,Wunderground v.1.15,2013-05-10 00:12:00,
2013-05-09 19:13:00,55.3,52.4,29.89,NNE,20,16.0,18.0,90,0.00,,,0.00,Wunderground v.1.15,2013-05-10 00:13:00,
2013-05-09 19:16:00,55.3,52.4,29.89,NE,36,16.0,18.0,90,0.00,,,0.00,Wunderground v.1.15,2013-05-10 00:16:00,
2013-05-09 19:18:00,55.3,52.4,29.89,NNE,22,15.0,18.0,90,0.00,,,0.00,Wunderground v.1.15,2013-05-10 00:18:00,
2013-05-09 19:20:00,55.2,52.0,29.89,NE,37,15.0,15.0,89,0.00,,,0.00,Wunderground v.1.15,2013-05-10 00:20:00,
2013-05-09 19:24:00,55.2,52.0,29.89,North,6,14.0,18.0,89,0.00,,,0.00,Wunderground v.1.15,2013-05-10 00:24:00,
2013-05-09 19:26:00,55.1,51.9,29.89,NNE,33,15.0,18.0,89,0.00,,,0.00,Wunderground v.1.15,2013-05-10 00:26:00,
2013-05-09 19:30:00,54.8,51.9,29.90,NNE,27,15.0,15.0,90,0.00,,,0.00,Wunderground v.1.15,2013-05-10 00:30:00,
2013-05-09 19:33:00,54.4,51.5,29.90,NNE,15,16.0,20.0,90,0.00,,,0.00,Wunderground v.1.15,2013-05-10 00:33:00,
2013-05-09 19:35:00,54.3,51.4,29.90,North,9,16.0,20.0,90,0.00,,,0.00,Wunderground v.1.15,2013-05-10 00:35:00,
2013-05-09 19:38:00,54.2,51.6,29.90,NNE,19,16.0,20.0,91,0.00,,,0.00,Wunderground v.1.15,2013-05-10 00:38:00,
2013-05-09 19:40:00,54.1,51.5,29.90,NNE,28,16.0,18.0,91,0.00,,,0.00,Wunderground v.1.15,2013-05-10 00:40:00,
2013-05-09 19:42:00,54.0,51.1,29.90,NNE,18,17.0,18.0,90,0.00,,,0.00,Wunderground v.1.15,2013-05-10 00:42:00,
2013-05-09 19:44:00,54.0,51.4,29.90,NE,34,16.0,18.0,91,0.00,,,0.00,Wunderground v.1.15,2013-05-10 00:44:00,
2013-05-09 19:46:00,53.9,51.3,29.90,NNE,13,16.0,18.0,91,0.00,,,0.00,Wunderground v.1.15,2013-05-10 00:46:00,
2013-05-09 19:48:00,53.9,51.3,29.90,NE,36,15.0,18.0,91,0.00,,,0.00,Wunderground v.1.15,2013-05-10 00:48:00,
2013-05-09 19:52:00,53.8,51.2,29.90,NNE,26,14.0,17.0,91,0.00,,,0.00,Wunderground v.1.15,2013-05-10 00:52:00,
2013-05-09 19:54:00,53.7,51.1,29.90,NNE,21,14.0,18.0,91,0.00,,,0.00,Wunderground v.1.15,2013-05-10 00:54:00,
2013-05-09 19:55:00,53.7,51.1,29.90,NNE,33,14.0,18.0,91,0.00,,,0.00,Wunderground v.1.15,2013-05-10 00:55:00,
2013-05-09 19:57:00,53.6,51.0,29.90,NNE,26,15.0,18.0,91,0.00,,,0.00,Wunderground v.1.15,2013-05-10 00:57:00,
2013-05-09 20:00:00,53.4,50.8,29.91,NNE,16,15.0,15.0,91,0.00,,,0.00,Wunderground v.1.15,2013-05-10 01:00:00,
2013-05-09 20:04:00,53.3,51.0,29.90,NNE,21,15.0,18.0,92,0.00,,,0.00,Wunderground v.1.15,2013-05-10 01:04:00,
2013-05-09 20:06:00,53.3,50.7,29.90,NE,35,15.0,18.0,91,0.00,,,0.00,Wunderground v.1.15,2013-05-10 01:06:00,
2013-05-09 20:08:00,53.2,50.9,29.90,NE,38,14.0,18.0,92,0.00,,,0.00,Wunderground v.1.15,2013-05-10 01:08:00,
2013-05-09 20:10:00,53.1,50.8,29.91,NNE,23,14.0,18.0,92,0.00,,,0.00,Wunderground v.1.15,2013-05-10 01:10:00,
2013-05-09 20:14:00,53.0,50.4,29.91,NNE,15,14.0,18.0,91,0.00,,,0.00,Wunderground v.1.15,2013-05-10 01:14:00,
2013-05-09 20:16:00,53.0,50.4,29.91,NE,34,14.0,18.0,91,0.00,,,0.00,Wunderground v.1.15,2013-05-10 01:16:00,
2013-05-09 20:17:00,53.0,50.4,29.91,North,4,15.0,18.0,91,0.00,,,0.00,Wunderground v.1.15,2013-05-10 01:17:00,
2013-05-09 20:22:00,52.9,50.0,29.91,NNE,27,15.0,18.0,90,0.00,,,0.00,Wunderground v.1.15,2013-05-10 01:22:00,
2013-05-09 20:24:00,52.9,50.3,29.91,NNE,12,15.0,18.0,91,0.00,,,0.00,Wunderground v.1.15,2013-05-10 01:24:00,
2013-05-09 20:26:00,52.8,50.2,29.91,NE,39,15.0,18.0,91,0.00,,,0.00,Wunderground v.1.15,2013-05-10 01:26:00,
2013-05-09 20:28:00,52.7,49.8,29.91,NNE,22,16.0,18.0,90,0.00,,,0.00,Wunderground v.1.15,2013-05-10 01:28:00,
2013-05-09 20:32:00,52.5,49.9,29.92,NNE,26,16.0,20.0,91,0.00,,,0.00,Wunderground v.1.15,2013-05-10 01:32:00,
2013-05-09 20:36:00,52.3,49.5,29.92,NE,48,16.0,20.0,90,0.00,,,0.00,Wunderground v.1.15,2013-05-10 01:36:00,
2013-05-09 20:37:00,52.3,49.5,29.92,NE,41,15.0,20.0,90,0.00,,,0.00,Wunderground v.1.15,2013-05-10 01:37:00,
2013-05-09 20:42:00,52.2,49.4,29.92,NNE,26,13.0,18.0,90,0.00,,,0.00,Wunderground v.1.15,2013-05-10 01:42:00,
2013-05-09 20:44:00,52.2,49.7,29.92,NE,44,13.0,18.0,91,0.00,,,0.00,Wunderground v.1.15,2013-05-10 01:44:00,
2013-05-09 20:46:00,52.2,49.7,29.92,NE,37,13.0,18.0,91,0.00,,,0.00,Wunderground v.1.15,2013-05-10 01:46:00,
2013-05-09 20:48:00,52.2,49.7,29.92,NE,43,13.0,18.0,91,0.00,,,0.00,Wunderground v.1.15,2013-05-10 01:48:00,
2013-05-09 20:52:00,52.2,49.4,29.92,NNE,32,14.0,18.0,90,0.00,,,0.00,Wunderground v.1.15,2013-05-10 01:52:00,
2013-05-09 20:54:00,52.1,49.3,29.92,NNE,28,14.0,18.0,90,0.00,,,0.00,Wunderground v.1.15,2013-05-10 01:54:00,
2013-05-09 20:59:00,52.0,49.2,29.91,NNE,27,14.0,14.0,90,0.00,,,0.00,Wunderground v.1.15,2013-05-10 01:59:00,
2013-05-09 21:04:00,52.0,49.2,29.92,NE,43,13.0,18.0,90,0.00,,,0.00,Wunderground v.1.15,2013-05-10 02:04:00,
2013-05-09 21:06:00,52.0,49.5,29.92,NNE,26,13.0,18.0,91,0.00,,,0.00,Wunderground v.1.15,2013-05-10 02:06:00,
2013-05-09 21:08:00,51.9,49.1,29.92,NE,43,12.0,18.0,90,0.00,,,0.00,Wunderground v.1.15,2013-05-10 02:08:00,
2013-05-09 21:10:00,51.9,49.1,29.92,NNE,26,12.0,18.0,90,0.00,,,0.00,Wunderground v.1.15,2013-05-10 02:10:00,
2013-05-09 21:14:00,51.8,49.3,29.92,NE,39,12.0,18.0,91,0.00,,,0.00,Wunderground v.1.15,2013-05-10 02:14:00,
2013-05-09 21:16:00,51.8,49.3,29.92,NNE,18,12.0,18.0,91,0.00,,,0.00,Wunderground v.1.15,2013-05-10 02:16:00,
2013-05-09 21:18:00,51.8,49.3,29.92,NNE,25,13.0,18.0,91,0.00,,,0.00,Wunderground v.1.15,2013-05-10 02:18:00,
2013-05-09 21:24:00,51.6,49.1,29.92,NE,46,13.0,15.0,91,0.00,,,0.00,Wunderground v.1.15,2013-05-10 02:24:00,
2013-05-09 21:26:00,51.3,48.5,29.92,NE,41,14.0,18.0,90,0.00,,,0.00,Wunderground v.1.15,2013-05-10 02:26:00,
2013-05-09 21:28:00,51.0,48.2,29.92,NE,43,14.0,18.0,90,0.00,,,0.00,Wunderground v.1.15,2013-05-10 02:28:00,
2013-05-09 21:30:00,50.8,48.0,29.92,NE,36,15.0,18.0,90,0.00,,,0.00,Wunderground v.1.15,2013-05-10 02:30:00,
2013-05-09 21:34:00,50.6,47.8,29.92,NE,56,16.0,18.0,90,0.00,,,0.00,Wunderground v.1.15,2013-05-10 02:34:00,
2013-05-09 21:36:00,50.6,48.1,29.92,NNE,32,15.0,18.0,91,0.00,,,0.00,Wunderground v.1.15,2013-05-10 02:36:00,
2013-05-09 21:38:00,50.6,48.1,29.92,NE,40,15.0,18.0,91,0.00,,,0.00,Wunderground v.1.15,2013-05-10 02:38:00,
2013-05-09 21:40:00,50.6,48.1,29.93,NE,50,14.0,14.0,91,0.00,,,0.00,Wunderground v.1.15,2013-05-10 02:40:00,
2013-05-09 21:42:00,50.6,48.1,29.93,NNE,23,13.0,18.0,91,0.00,,,0.00,Wunderground v.1.15,2013-05-10 02:42:00,
2013-05-09 21:44:00,50.6,48.1,29.93,NNE,30,12.0,18.0,91,0.00,,,0.00,Wunderground v.1.15,2013-05-10 02:44:00,
2013-05-09 21:45:00,50.6,48.1,29.93,NNE,28,12.0,18.0,91,0.00,,,0.00,Wunderground v.1.15,2013-05-10 02:45:00,
2013-05-09 21:49:00,50.6,48.1,29.93,NNE,32,14.0,18.0,91,0.00,,,0.00,Wunderground v.1.15,2013-05-10 02:49:00,
2013-05-09 21:52:00,50.6,48.1,29.93,NNE,30,14.0,18.0,91,0.00,,,0.00,Wunderground v.1.15,2013-05-10 02:52:00,
2013-05-09 21:54:00,50.6,48.4,29.93,NE,34,15.0,18.0,92,0.00,,,0.00,Wunderground v.1.15,2013-05-10 02:54:00,
2013-05-09 21:56:00,50.6,48.4,29.93,North,11,15.0,18.0,92,0.00,,,0.00,Wunderground v.1.15,2013-05-10 02:56:00,
2013-05-09 21:58:00,50.6,48.4,29.93,NNE,23,15.0,18.0,92,0.00,,,0.00,Wunderground v.1.15,2013-05-10 02:58:00,
2013-05-09 22:00:00,50.6,48.4,29.93,NNE,23,14.0,14.0,92,0.00,,,0.00,Wunderground v.1.15,2013-05-10 03:00:00,
2013-05-09 22:02:00,50.6,48.4,29.93,NE,36,15.0,15.0,92,0.00,,,0.00,Wunderground v.1.15,2013-05-10 03:02:00,
2013-05-09 22:04:00,50.4,48.2,29.93,NE,36,15.0,17.0,92,0.00,,,0.00,Wunderground v.1.15,2013-05-10 03:04:00,
2013-05-09 22:06:00,50.3,48.1,29.93,NNE,15,15.0,18.0,92,0.00,,,0.00,Wunderground v.1.15,2013-05-10 03:06:00,
2013-05-09 22:09:00,50.0,47.8,29.93,NE,35,16.0,18.0,92,0.00,,,0.00,Wunderground v.1.15,2013-05-10 03:09:00,
2013-05-09 22:12:00,49.9,47.7,29.93,NE,40,16.0,18.0,92,0.00,,,0.00,Wunderground v.1.15,2013-05-10 03:12:00,
2013-05-09 22:16:00,49.6,47.4,29.93,NE,41,16.0,18.0,92,0.00,,,0.00,Wunderground v.1.15,2013-05-10 03:16:00,
2013-05-09 22:18:00,49.4,47.2,29.93,NNE,13,15.0,18.0,92,0.00,,,0.00,Wunderground v.1.15,2013-05-10 03:18:00,
2013-05-09 22:20:00,49.2,46.7,29.93,NNE,26,15.0,18.0,91,0.00,,,0.00,Wunderground v.1.15,2013-05-10 03:20:00,
2013-05-09 22:22:00,49.1,46.9,29.93,NE,44,16.0,18.0,92,0.00,,,0.00,Wunderground v.1.15,2013-05-10 03:22:00,
2013-05-09 22:24:00,49.0,46.8,29.93,NNE,33,16.0,18.0,92,0.00,,,0.00,Wunderground v.1.15,2013-05-10 03:24:00,
2013-05-09 22:26:00,48.9,46.7,29.93,NE,39,16.0,18.0,92,0.00,,,0.00,Wunderground v.1.15,2013-05-10 03:26:00,
2013-05-09 22:29:00,48.7,46.5,29.93,NE,36,16.0,21.0,92,0.00,,,0.00,Wunderground v.1.15,2013-05-10 03:29:00,
2013-05-09 22:31:00,48.6,46.4,29.94,NE,36,17.0,21.0,92,0.00,,,0.00,Wunderground v.1.15,2013-05-10 03:31:00,
2013-05-09 22:36:00,48.5,46.3,29.94,NE,41,17.0,21.0,92,0.00,,,0.00,Wunderground v.1.15,2013-05-10 03:36:00,
2013-05-09 22:40:00,48.3,46.1,29.94,NNE,22,17.0,19.0,92,0.00,,,0.00,Wunderground v.1.15,2013-05-10 03:40:00,
2013-05-09 22:42:00,48.3,46.1,29.94,NNE,15,17.0,23.0,92,0.00,,,0.00,Wunderground v.1.15,2013-05-10 03:42:00,
2013-05-09 22:46:00,48.1,45.9,29.94,NE,40,18.0,23.0,92,0.00,,,0.00,Wunderground v.1.15,2013-05-10 03:46:00,
2013-05-09 22:48:00,48.0,46.1,29.94,NNE,28,18.0,23.0,93,0.00,,,0.00,Wunderground v.1.15,2013-05-10 03:48:00,
2013-05-09 22:51:00,48.0,46.1,29.94,NE,42,18.0,18.0,93,0.00,,,0.00,Wunderground v.1.15,2013-05-10 03:51:00,
2013-05-09 22:53:00,48.0,46.1,29.94,NNE,26,17.0,19.0,93,0.00,,,0.00,Wunderground v.1.15,2013-05-10 03:53:00,
2013-05-09 22:56:00,48.0,46.1,29.94,NNE,13,17.0,19.0,93,0.00,,,0.00,Wunderground v.1.15,2013-05-10 03:56:00,
2013-05-09 23:00:00,47.9,46.0,29.94,NE,37,17.0,18.0,93,0.00,,,0.00,Wunderground v.1.15,2013-05-10 04:00:00,
2013-05-09 23:02:00,47.9,46.0,29.94,NNE,32,16.0,18.0,93,0.00,,,0.00,Wunderground v.1.15,2013-05-10 04:02:00,
2013-05-09 23:04:00,47.9,46.0,29.94,NNE,20,16.0,18.0,93,0.00,,,0.00,Wunderground v.1.15,2013-05-10 04:04:00,
2013-05-09 23:08:00,47.8,45.9,29.94,NE,48,16.0,20.0,93,0.00,,,0.00,Wunderground v.1.15,2013-05-10 04:08:00,
2013-05-09 23:14:00,47.8,45.9,29.94,NNE,25,16.0,18.0,93,0.00,,,0.00,Wunderground v.1.15,2013-05-10 04:14:00,
2013-05-09 23:17:00,47.8,45.9,29.94,NE,46,15.0,18.0,93,0.00,,,0.00,Wunderground v.1.15,2013-05-10 04:17:00,
2013-05-09 23:20:00,47.7,45.8,29.95,NE,36,15.0,18.0,93,0.00,,,0.00,Wunderground v.1.15,2013-05-10 04:20:00,
2013-05-09 23:24:00,47.7,45.8,29.94,NNE,31,16.0,22.0,93,0.00,,,0.00,Wunderground v.1.15,2013-05-10 04:24:00,
2013-05-09 23:30:00,47.5,45.6,29.95,NE,41,17.0,17.0,93,0.00,,,0.00,Wunderground v.1.15,2013-05-10 04:30:00,
2013-05-09 23:32:00,47.4,45.5,29.95,NE,39,17.0,18.0,93,0.00,,,0.00,Wunderground v.1.15,2013-05-10 04:32:00,
2013-05-09 23:36:00,47.3,45.1,29.95,NE,39,17.0,20.0,92,0.00,,,0.00,Wunderground v.1.15,2013-05-10 04:36:00,
2013-05-09 23:39:00,47.1,44.9,29.95,NNE,22,17.0,17.0,92,0.00,,,0.00,Wunderground v.1.15,2013-05-10 04:39:00,
2013-05-09 23:42:00,47.1,44.9,29.95,NNE,27,17.0,18.0,92,0.00,,,0.00,Wunderground v.1.15,2013-05-10 04:42:00,
2013-05-09 23:46:00,47.1,45.2,29.95,NE,36,16.0,18.0,93,0.00,,,0.00,Wunderground v.1.15,2013-05-10 04:46:00,
2013-05-09 23:50:00,47.1,45.2,29.95,North,10,14.0,18.0,93,0.00,,,0.00,Wunderground v.1.15,2013-05-10 04:50:00,
2013-05-09 23:52:00,47.1,45.2,29.95,NE,40,14.0,18.0,93,0.00,,,0.00,Wunderground v.1.15,2013-05-10 04:52:00,
2013-05-09 23:54:00,47.1,45.2,29.95,NNE,26,14.0,18.0,93,0.00,,,0.00,Wunderground v.1.15,2013-05-10 04:54:00,
2013-05-09 23:58:00,47.1,45.2,29.95,NNE,25,15.0,18.0,93,0.00,,,0.00,Wunderground v.1.15,2013-05-10 04:58:00,
2013-05-09 23:59:00,47.0,45.1,29.95,NNE,23,15.0,15.0,93,0.00,,,0.00,Wunderground v.1.15,2013-05-10 04:59:00,